FW2996 Weather Reports


Display with metric or nautical units.
time (UTC)temp
F
wind
direction
speed
MPH
gust
MPH
rain 1hr
in
rain 24hr
in
rain mn
in
humidity
%
barometer
mb
20260901182018 94 131 2.0 4.0 0.00 0.00 0.00 49 1057.5
20260901181518 94 178 2.0 4.0 0.00 0.00 0.00 50 1057.6
20260901181012 92 170 4.0 10.0 0.00 0.00 0.00 53 1057.7
20260901180511 93 120 4.0 10.0 0.00 0.00 0.00 51 1057.6
20260901180010 95 124 2.0 4.0 0.00 0.00 0.00 49 1057.9
20260901175504 94 241 2.0 6.0 0.00 0.00 0.00 49 1057.8
20260901174959 92 144 2.0 7.0 0.00 0.00 0.00 52 1058.0
20260901174454 92 176 3.0 8.0 0.00 0.00 0.00 52 1058.1
20260901173950 91 129 6.0 9.0 0.00 0.00 0.00 53 1058.1
20260901173446 90 110 6.0 7.0 0.00 0.00 0.00 54 1058.2
20260901172942 91 61 1.0 4.0 0.00 0.00 0.00 53 1058.0
20260901172437 90 143 2.0 3.0 0.00 0.00 0.00 56 1058.3
20260901171935 90 145 3.0 6.0 0.00 0.00 0.00 56 1058.5
20260901171433 91 101 1.0 8.0 0.00 0.00 0.00 55 1058.4
20260901170932 93 166 4.0 8.0 0.00 0.00 0.00 53 1058.5
20260901170427 91 70 1.0 4.0 0.00 0.00 0.00 54 1058.5
20260901165926 93 121 2.0 3.0 0.00 0.00 0.00 52 1058.6
20260901165421 93 64 1.0 2.0 0.00 0.00 0.00 52 1058.5
20260901164918 91 207 4.0 9.0 0.00 0.00 0.00 56 1058.7
20260901164413 91 170 3.0 3.0 0.00 0.00 0.00 55 1058.7
20260901163913 91 88 2.0 7.0 0.00 0.00 0.00 55 1058.8
20260901163407 89 96 4.0 8.0 0.00 0.00 0.00 58 1058.6
20260901162903 91 176 1.0 4.0 0.00 0.00 0.00 55 1058.7
20260901162403 91 140 3.0 6.0 0.00 0.00 0.00 54 1058.7
20260901161901 91 84 1.0 4.0 0.00 0.00 0.00 55 1059.0
20260901161355 90 122 5.0 8.0 0.00 0.00 0.00 56 1059.0
20260901160850 90 202 2.0 3.0 0.00 0.00 0.00 54 1058.9
20260901160347 90 135 1.0 3.0 0.00 0.00 0.00 56 1059.0
20260901155846 90 122 4.0 6.0 0.00 0.00 0.00 55 1059.0
20260901155340 90 76 2.0 8.0 0.00 0.00 0.00 56 1058.8
20260901154837 91 153 4.0 6.0 0.00 0.00 0.00 55 1058.9
20260901154336 89 71 0.0 2.0 0.00 0.00 0.00 58 1058.7
20260901153831 88 156 2.0 3.0 0.00 0.00 0.00 58 1058.8
20260901153325 89 115 1.0 4.0 0.00 0.00 0.00 58 1058.8
20260901152824 89 230 0.0 1.0 0.00 0.00 0.00 58 1058.8
20260901152323 90 248 4.0 4.0 0.00 0.00 0.00 60 1059.0
20260901151814 88 1 0.0 1.0 0.00 0.00 0.00 62 1059.0
20260901151314 87 30 2.0 2.0 0.00 0.00 0.00 65 1058.9
20260901150808 87 231 1.0 3.0 0.00 0.00 0.00 67 1059.0
20260901150306 87 228 1.0 3.0 0.00 0.00 0.00 66 1058.8
20260901145803 86 242 2.0 3.0 0.00 0.00 0.00 67 1058.8
20260901145257 86 290 3.0 3.0 0.00 0.00 0.00 71 1058.6
20260901144753 86 265 2.0 2.0 0.00 0.00 0.00 71 1059.0
20260901144249 86 130 3.0 3.0 0.00 0.00 0.00 71 1058.9
20260901143744 85 161 0.0 1.0 0.00 0.00 0.00 72 1059.0
20260901143240 84 158 2.0 2.0 0.00 0.00 0.00 74 1059.0
20260901142737 85 154 0.0 1.0 0.00 0.00 0.00 74 1059.1
20260901142235 83 145 2.0 3.0 0.00 0.00 0.00 77 1059.2
20260901141731 83 237 2.0 3.0 0.00 0.00 0.00 79 1059.1
20260901141230 83 188 1.0 2.0 0.00 0.00 0.00 78 1059.2
20260901140729 82 254 2.0 3.0 0.00 0.00 0.00 80 1059.0
20260901140222 82 227 2.0 2.0 0.00 0.00 0.00 80 1059.2
20260901135718 82 257 3.0 8.0 0.00 0.00 0.00 82 1059.1
20260901135217 81 358 0.0 2.0 0.00 0.00 0.00 83 1059.0
20260901134713 80 255 3.0 3.0 0.00 0.00 0.00 84 1058.9
20260901134209 80 229 2.0 7.0 0.00 0.00 0.00 86 1058.8
20260901133708 79 200 5.0 7.0 0.00 0.00 0.00 87 1058.8
20260901133207 80 207 2.0 3.0 0.00 0.00 0.00 87 1058.7
20260901132701 79 240 4.0 6.0 0.00 0.00 0.00 88 1058.7
20260901132156 78 267 2.0 3.0 0.00 0.00 0.00 89 1058.7
20260901131655 78 275 1.0 6.0 0.00 0.00 0.00 90 1058.6
20260901131155 78 239 1.0 2.0 0.00 0.00 0.00 89 1058.6
20260901130650 78 252 0.0 0.0 0.00 0.00 0.00 88 1058.7
20260901130149 77 252 0.0 0.0 0.00 0.00 0.00 90 1058.5
20260901125647 77 252 0.0 0.0 0.00 0.00 0.00 91 1058.5
20260901125142 76 252 0.0 0.0 0.00 0.00 0.00 92 1058.5
20260901124637 75 252 0.0 0.0 0.00 0.00 0.00 94 1058.3
20260901124136 75 252 0.0 0.0 0.00 0.00 0.00 94 1058.2
20260901123631 75 252 0.0 1.0 0.00 0.00 0.00 95 1058.1
20260901123132 75 252 1.0 2.0 0.00 0.00 0.00 95 1058.5
20260901122630 74 263 1.0 2.0 0.00 0.00 0.00 95 1058.0
20260901122125 74 236 2.0 3.0 0.00 0.00 0.00 95 1058.4
20260901121620 74 254 1.0 3.0 0.00 0.00 0.00 95 1058.3
20260901121115 74 249 0.0 2.0 0.00 0.00 0.00 95 1058.2
20260901120614 74 237 2.0 3.0 0.00 0.00 0.00 95 1058.1
20260901120109 74 241 1.0 2.0 0.00 0.00 0.00 95 1058.1
20260901115604 74 224 2.0 2.0 0.00 0.00 0.00 95 1058.1
20260901115101 74 244 0.0 1.0 0.00 0.00 0.00 94 1058.2
20260901114558 74 237 1.0 2.0 0.00 0.00 0.00 95 1058.1
20260901114056 74 267 1.0 1.0 0.00 0.00 0.00 95 1058.1
20260901113555 74 261 1.0 2.0 0.00 0.00 0.00 94 1058.0
20260901113051 74 242 0.0 1.0 0.00 0.00 0.00 94 1058.2
20260901112551 74 242 0.0 0.0 0.00 0.00 0.00 94 1057.9
20260901112046 74 243 0.0 1.0 0.00 0.00 0.00 94 1058.0
20260901111544 74 242 0.0 1.0 0.00 0.00 0.00 93 1058.1
20260901111043 74 242 0.0 0.0 0.00 0.00 0.00 93 1057.7
20260901110539 74 242 0.0 1.0 0.00 0.00 0.00 93 1058.0
20260901110034 74 242 0.0 0.0 0.00 0.00 0.00 93 1057.8
20260901105531 75 242 1.0 2.0 0.00 0.00 0.00 92 1058.0
20260901105024 75 243 0.0 0.0 0.00 0.00 0.00 92 1057.9
20260901104521 75 244 0.0 1.0 0.00 0.00 0.00 91 1057.8
20260901104016 75 207 3.0 4.0 0.00 0.00 0.00 91 1058.0
20260901103510 75 245 1.0 2.0 0.00 0.00 0.00 91 1057.8
20260901103006 75 271 2.0 2.0 0.00 0.00 0.00 91 1058.0
20260901102505 75 261 2.0 2.0 0.00 0.00 0.00 91 1058.0
20260901101954 75 188 0.0 1.0 0.00 0.00 0.00 90 1057.8
20260901101449 75 141 0.0 1.0 0.00 0.00 0.00 90 1057.9
20260901100944 75 140 0.0 1.0 0.00 0.00 0.00 90 1058.0
20260901100438 75 139 1.0 1.0 0.00 0.00 0.00 90 1057.9
20260901095938 75 139 1.0 2.0 0.00 0.00 0.00 89 1058.1
20260901095437 75 138 1.0 2.0 0.00 0.00 0.00 89 1057.9
20260901094930 75 174 1.0 2.0 0.00 0.00 0.00 88 1057.9
20260901094429 75 174 1.0 2.0 0.00 0.00 0.00 88 1058.2
20260901093929 75 190 0.0 2.0 0.00 0.00 0.00 87 1058.0
20260901093424 75 235 0.0 0.0 0.00 0.00 0.00 87 1058.1
20260901092919 75 235 0.0 0.0 0.00 0.00 0.00 87 1058.2
20260901092415 76 222 0.0 1.0 0.00 0.00 0.00 87 1058.2
20260901091911 76 222 0.0 1.0 0.00 0.00 0.00 86 1058.1
20260901091410 76 223 0.0 2.0 0.00 0.00 0.00 86 1058.1
20260901090905 76 166 0.0 2.0 0.00 0.00 0.00 86 1058.1
20260901090359 76 216 2.0 2.0 0.00 0.00 0.00 85 1058.1
20260901085856 76 186 3.0 3.0 0.00 0.00 0.00 86 1058.0
20260901085351 76 178 1.0 2.0 0.00 0.00 0.00 85 1057.9
20260901084848 77 195 1.0 3.0 0.00 0.00 0.00 85 1057.8
20260901084343 76 232 2.0 2.0 0.00 0.00 0.00 86 1058.0
20260901083838 77 233 2.0 2.0 0.00 0.00 0.00 86 1057.9
20260901083333 77 163 1.0 3.0 0.00 0.00 0.00 86 1058.0
20260901082831 77 156 2.0 4.0 0.00 0.00 0.00 86 1058.0
20260901082327 77 162 1.0 2.0 0.00 0.00 0.00 86 1058.2
20260901081821 77 189 2.0 2.0 0.00 0.00 0.00 86 1058.0
20260901081316 77 156 2.0 4.0 0.00 0.00 0.00 85 1057.9
20260901080811 77 152 1.0 2.0 0.00 0.00 0.00 85 1058.1
20260901080310 77 129 2.0 3.0 0.00 0.00 0.00 85 1057.8
20260901075804 78 146 1.0 2.0 0.00 0.00 0.00 85 1057.9
20260901075259 78 197 0.0 3.0 0.00 0.00 0.00 84 1058.0
20260901074754 78 186 1.0 2.0 0.00 0.00 0.00 84 1058.0
20260901074249 78 205 0.0 3.0 0.00 0.00 0.00 85 1058.0
20260901073745 78 157 1.0 6.0 0.00 0.00 0.00 84 1058.0
20260901073240 78 163 2.0 3.0 0.00 0.00 0.00 84 1058.1
20260901072735 78 180 3.0 3.0 0.00 0.00 0.00 84 1058.4
20260901072230 78 162 3.0 3.0 0.00 0.00 0.00 84 1057.9
20260901071725 78 169 1.0 3.0 0.00 0.00 0.00 84 1058.2
20260901071225 79 157 2.0 4.0 0.00 0.00 0.00 83 1058.2
20260901070724 79 186 2.0 4.0 0.00 0.00 0.00 83 1058.4
20260901070219 79 168 3.0 4.0 0.00 0.00 0.00 82 1058.2
20260901065719 79 124 2.0 3.0 0.00 0.00 0.00 82 1058.1
20260901065214 79 158 1.0 7.0 0.00 0.00 0.00 81 1058.0
20260901064710 80 167 1.0 4.0 0.00 0.00 0.00 81 1058.0
20260901064206 80 205 2.0 4.0 0.00 0.00 0.00 80 1057.9
20260901063703 80 143 1.0 3.0 0.00 0.00 0.00 79 1058.0
20260901063159 80 136 1.0 6.0 0.00 0.00 0.00 79 1057.9
20260901062654 80 166 1.0 4.0 0.00 0.00 0.00 78 1057.9
20260901062150 80 184 1.0 6.0 0.00 0.00 0.00 77 1057.8
20260901061646 80 173 1.0 4.0 0.00 0.00 0.00 77 1057.8
20260901061146 80 186 3.0 3.0 0.00 0.00 0.00 77 1057.7
20260901060641 80 157 2.0 3.0 0.00 0.00 0.00 76 1057.8
20260901060137 81 176 3.0 4.0 0.00 0.00 0.00 76 1057.6
20260901055632 81 180 2.0 7.0 0.00 0.00 0.00 75 1057.6
20260901055128 81 129 2.0 6.0 0.00 0.00 0.00 75 1057.7
20260901054625 81 122 2.0 6.0 0.00 0.00 0.00 74 1057.6
20260901054121 81 172 2.0 7.0 0.00 0.00 0.00 74 1057.5
20260901053617 82 192 3.0 8.0 0.00 0.00 0.00 74 1057.6
20260901053114 82 182 4.0 7.0 0.00 0.00 0.00 73 1057.4
20260901052612 82 170 3.0 7.0 0.00 0.00 0.00 73 1057.7
20260901052108 82 159 2.0 7.0 0.00 0.00 0.00 73 1057.6
20260901051607 82 144 4.0 6.0 0.00 0.00 0.00 72 1057.5
20260901051106 82 170 4.0 6.0 0.00 0.00 0.00 72 1057.2
20260901050602 82 203 4.0 7.0 0.00 0.00 0.00 72 1057.4
20260901050056 83 135 3.0 7.0 0.00 0.00 0.00 72 1057.4
20260901045551 83 162 4.0 9.0 0.00 0.00 0.00 72 1057.4
20260901045046 83 167 2.0 8.0 0.00 0.00 0.00 72 1057.4
20260901044542 83 156 2.0 7.0 0.00 0.00 0.00 72 1057.3
20260901044038 83 182 2.0 4.0 0.00 0.00 0.00 72 1057.3
20260901043533 83 145 2.0 7.0 0.00 0.00 0.00 71 1057.3
20260901043029 83 159 5.0 7.0 0.00 0.00 0.00 71 1057.3
20260901042528 84 168 3.0 8.0 0.00 0.00 0.00 71 1057.5
20260901042024 84 189 4.0 10.0 0.00 0.00 0.00 71 1057.3
20260901041519 84 142 5.0 9.0 0.00 0.00 0.00 70 1057.2
20260901041014 84 152 5.0 10.0 0.00 0.00 0.00 70 1057.3
20260901040508 84 165 4.0 13.0 0.00 0.00 0.00 69 1056.9
20260901040007 84 139 3.0 9.0 0.00 0.00 0.00 69 1057.3
20260901035506 84 137 4.0 10.0 0.00 0.00 0.00 68 1057.2
20260901035004 85 143 7.0 9.0 0.00 0.00 0.00 67 1057.2
20260901034504 85 138 5.0 13.0 0.00 0.00 0.00 66 1057.2
20260901033959 85 138 5.0 9.0 0.00 0.00 0.00 64 1057.2
20260901033458 85 154 4.0 9.0 0.00 0.00 0.00 63 1057.0
20260901032956 85 128 3.0 10.0 0.00 0.00 0.00 62 1056.9
20260901032451 85 131 6.0 13.0 0.00 0.00 0.00 60 1057.2
20260901031946 84 107 6.0 9.0 0.00 0.00 0.00 58 1057.0
20260901031442 84 163 3.0 7.0 0.00 0.00 0.00 57 1056.8
20260901030941 84 154 4.0 8.0 0.00 0.00 0.00 57 1056.7
20260901030437 84 136 3.0 8.0 0.00 0.00 0.00 56 1056.8
20260901025936 83 101 1.0 2.0 0.00 0.00 0.00 57 1056.8
20260901025432 84 101 0.0 0.0 0.00 0.00 0.00 56 1056.3
20260901024931 84 101 0.0 0.0 0.00 0.00 0.00 56 1056.2
20260901024425 84 101 0.0 0.0 0.00 0.00 0.00 56 1056.2
20260901023924 84 101 0.0 1.0 0.00 0.00 0.00 55 1056.3
20260901023418 85 101 1.0 2.0 0.00 0.00 0.00 55 1056.1
20260901022914 85 100 1.0 4.0 0.00 0.00 0.00 54 1056.1
20260901022410 85 135 1.0 2.0 0.00 0.00 0.00 54 1056.2
20260901021904 85 113 0.0 0.0 0.00 0.00 0.00 55 1056.0
20260901021400 85 113 0.0 0.0 0.00 0.00 0.00 54 1056.0
20260901020855 86 113 0.0 0.0 0.00 0.00 0.00 54 1055.8
20260901020351 86 113 0.0 1.0 0.00 0.00 0.00 53 1055.8
20260901015849 87 113 0.0 1.0 0.00 0.00 0.00 52 1055.5
20260901015346 87 113 1.0 1.0 0.00 0.00 0.00 51 1055.6
20260901014845 87 113 0.0 1.0 0.00 0.00 0.00 52 1055.7
20260901014342 87 113 0.0 0.0 0.00 0.00 0.00 52 1055.6
20260901013837 87 113 0.0 0.0 0.00 0.00 0.00 51 1055.5
20260901013332 88 113 0.0 1.0 0.00 0.00 0.00 51 1055.4
20260901012828 88 113 0.0 1.0 0.00 0.00 0.00 51 1055.5
20260901012323 89 113 0.0 1.0 0.00 0.00 0.00 50 1055.5
20260901011819 89 113 2.0 2.0 0.00 0.00 0.00 50 1055.4
20260901011314 89 113 2.0 3.0 0.00 0.00 0.00 49 1055.3
20260901010807 89 113 1.0 1.0 0.00 0.00 0.00 50 1055.5
20260901010302 90 113 0.0 1.0 0.00 0.00 0.00 49 1055.4
20260901005800 90 113 1.0 2.0 0.00 0.00 0.00 49 1055.4
20260901005256 91 126 2.0 2.0 0.00 0.00 0.00 48 1055.3
20260901004750 91 142 3.0 4.0 0.00 0.00 0.00 47 1055.4
20260901004245 91 124 2.0 4.0 0.00 0.00 0.00 46 1055.2
20260901003744 92 122 3.0 6.0 0.00 0.00 0.00 45 1055.2
20260901003240 92 141 4.0 6.0 0.00 0.00 0.00 45 1055.2
20260901002738 92 176 4.0 8.0 0.00 0.00 0.00 44 1055.3
20260901002233 93 122 6.0 7.0 0.00 0.00 0.00 44 1055.2
20260901001723 93 143 5.0 8.0 0.00 0.00 0.00 43 1055.2
20260901001213 93 169 6.0 9.0 0.00 0.00 0.00 42 1055.0
20260901000708 93 68 2.0 8.0 0.00 0.00 0.00 43 1055.1
20260901000204 94 158 5.0 10.0 0.00 0.00 0.00 43 1055.0
20260831235701 94 101 4.0 6.0 0.00 0.00 0.00 43 1054.9
20260831235157 94 148 2.0 6.0 0.00 0.00 0.00 43 1055.0
20260831234656 94 135 4.0 9.0 0.00 0.00 0.00 42 1055.0
20260831234152 95 156 6.0 7.0 0.00 0.00 0.00 42 1055.1
20260831233647 95 134 5.0 9.0 0.00 0.00 0.00 42 1054.9
20260831233143 95 117 5.0 10.0 0.00 0.00 0.00 42 1055.1
20260831232637 95 143 7.0 10.0 0.00 0.00 0.00 42 1055.1
20260831232134 96 115 4.0 7.0 0.00 0.00 0.00 41 1054.9
20260831231630 95 136 4.0 6.0 0.00 0.00 0.00 41 1055.1
20260831231125 96 131 3.0 7.0 0.00 0.00 0.00 41 1055.0
20260831230616 96 228 3.0 7.0 0.00 0.00 0.00 41 1055.3
20260831230115 96 236 3.0 8.0 0.00 0.00 0.00 41 1055.1
20260831225611 96 154 2.0 7.0 0.00 0.00 0.00 42 1055.0
20260831225110 96 185 1.0 4.0 0.00 0.00 0.00 41 1055.1
20260831224605 95 164 2.0 3.0 0.00 0.00 0.00 42 1055.2
20260831224101 96 123 6.0 9.0 0.00 0.00 0.00 41 1055.3
20260831223556 96 193 6.0 8.0 0.00 0.00 0.00 41 1055.4
20260831223053 96 171 7.0 9.0 0.00 0.00 0.00 41 1055.3
20260831222548 95 67 2.0 4.0 0.00 0.00 0.00 40 1055.4
20260831222043 96 122 2.0 7.0 0.00 0.00 0.00 41 1055.5
20260831221539 96 149 3.0 10.0 0.00 0.00 0.00 40 1055.4
20260831221038 95 199 4.0 10.0 0.00 0.00 0.00 42 1055.5
20260831220533 95 169 4.0 10.0 0.00 0.00 0.00 43 1055.5
20260831220029 95 260 3.0 4.0 0.00 0.00 0.00 42 1055.4
20260831215525 96 75 2.0 7.0 0.00 0.00 0.00 41 1055.3
20260831215020 96 165 8.0 10.0 0.00 0.00 0.00 40 1055.6
20260831214518 96 254 4.0 7.0 0.00 0.00 0.00 40 1055.7
20260831214013 96 192 2.0 3.0 0.00 0.00 0.00 40 1055.6
20260831213510 96 191 7.0 11.0 0.00 0.00 0.00 41 1055.9
20260831213005 96 120 2.0 10.0 0.00 0.00 0.00 41 1055.9
20260831212501 96 176 4.0 11.0 0.00 0.00 0.00 40 1056.0
20260831212000 95 238 1.0 8.0 0.00 0.00 0.00 42 1056.0
20260831211455 95 130 10.0 13.0 0.00 0.00 0.00 43 1056.0
20260831210954 96 260 3.0 8.0 0.00 0.00 0.00 41 1055.9
20260831210449 96 106 6.0 10.0 0.00 0.00 0.00 42 1056.3
20260831205946 95 170 6.0 8.0 0.00 0.00 0.00 42 1056.1
20260831205442 95 198 2.0 8.0 0.00 0.00 0.00 40 1056.5
20260831204937 94 190 3.0 11.0 0.00 0.00 0.00 42 1056.6
20260831204437 94 68 2.0 9.0 0.00 0.00 0.00 43 1056.5
20260831203935 94 126 4.0 13.0 0.00 0.00 0.00 42 1056.6
20260831203429 94 84 3.0 11.0 0.00 0.00 0.00 44 1056.7
20260831202927 94 122 7.0 14.0 0.00 0.00 0.00 42 1056.9
20260831202423 94 127 11.0 16.0 0.00 0.00 0.00 44 1056.8
20260831201918 95 106 2.0 7.0 0.00 0.00 0.00 44 1057.0
20260831201416 95 120 6.0 14.0 0.00 0.00 0.00 42 1057.2
20260831200913 96 117 4.0 7.0 0.00 0.00 0.00 45 1057.4
20260831200407 94 133 8.0 11.0 0.00 0.00 0.00 46 1057.4
20260831195902 94 135 1.0 7.0 0.00 0.00 0.00 46 1057.4
20260831195357 94 102 8.0 14.0 0.00 0.00 0.00 46 1057.5
20260831194853 95 184 3.0 10.0 0.00 0.00 0.00 47 1057.5
20260831194348 94 127 4.0 8.0 0.00 0.00 0.00 48 1057.7
20260831193847 93 182 7.0 14.0 0.00 0.00 0.00 49 1057.7
20260831193342 93 250 4.0 14.0 0.00 0.00 0.00 49 1057.6
20260831192837 94 189 3.0 8.0 0.00 0.00 0.00 49 1057.6
20260831192332 94 176 6.0 8.0 0.00 0.00 0.00 48 1057.7
20260831191828 94 197 3.0 11.0 0.00 0.00 0.00 48 1057.9
20260831191324 94 130 10.0 11.0 0.00 0.00 0.00 50 1057.8
20260831190820 93 161 5.0 9.0 0.00 0.00 0.00 50 1057.9
20260831190319 93 117 5.0 14.0 0.00 0.00 0.00 51 1058.2
20260831185819 93 186 8.0 11.0 0.00 0.00 0.00 52 1058.1
20260831185315 93 144 6.0 8.0 0.00 0.00 0.00 50 1058.2
20260831184814 92 164 4.0 11.0 0.00 0.00 0.00 52 1058.2
20260831184310 92 132 10.0 13.0 0.00 0.00 0.00 52 1058.2
20260831183805 92 169 4.0 9.0 0.00 0.00 0.00 52 1058.4
20260831183304 93 235 2.0 7.0 0.00 0.00 0.00 50 1058.5
20260831182803 93 193 6.0 10.0 0.00 0.00 0.00 50 1058.3